Theta_e
291 291 291 291 290 290 290 289 290 290 289 289 289 288 288 287 287 286 285 284 283 282 281 280 280 279 279 279 278 278 277 277 278 278 278 278 278 277 277 277 277 277 276 276 276 276 276 276 276 276 276 276 275 275 275 275 275 274 274 275 275 276
291 290 290 290 289 289 289 289 289 288 288 288 288 288 287 286 285 284 283 283 282 281 280 280 279 278 278 278 277 277 277 277 277 277 277 277 277 277 277 276 276 276 275 275 275 275 275 275 275 274 274 274 274 273 273 273 274 273 273 274 274 274
290 290 290 290 289 289 289 289 288 288 288 288 288 286 286 285 284 283 282 282 280 280 279 278 278 277 277 276 277 276 276 276 277 276 277 277 276 276 275 275 275 275 274 274 274 274 273 273 273 273 273 273 272 272 272 272 272 272 272 273 272 273
290 288 288 288 287 287 287 288 287 287 287 287 287 286 285 284 283 282 281 280 280 279 278 277 277 276 276 276 276 276 276 276 276 276 276 275 275 275 274 274 274 274 273 273 272 272 272 272 272 272 272 271 271 271 271 271 271 271 271 271 271 272
289 288 287 287 286 287 286 287 286 286 286 286 286 285 284 283 282 281 280 279 278 277 277 276 275 275 275 275 275 275 275 275 275 275 274 274 274 274 274 273 273 272 272 272 271 271 271 271 271 271 271 271 270 270 270 271 271 270 270 270 270 272
287 287 286 286 286 285 285 286 286 286 286 285 284 283 283 282 281 280 278 277 277 276 275 275 275 274 274 274 275 274 275 274 274 274 274 273 273 273 273 272 272 271 271 270 271 271 271 271 271 271 271 270 270 270 270 270 270 270 270 270 272 274
286 286 286 285 285 285 285 285 285 285 284 284 283 283 281 280 279 278 277 276 275 275 274 274 274 274 274 274 274 274 274 274 274 274 273 272 272 272 271 271 271 270 270 270 270 270 270 270 270 270 270 270 270 270 270 270 270 270 270 271 271 272
286 285 285 285 285 285 284 284 284 284 283 283 283 281 279 278 278 277 276 275 274 274 273 274 274 273 273 274 274 273 273 273 273 272 272 272 271 271 270 270 270 270 269 270 270 270 270 270 270 270 270 270 270 270 270 270 270 271 272 271 270 270
285 285 285 285 285 284 284 284 283 283 282 281 281 280 278 277 276 275 274 274 274 273 273 274 273 274 273 273 273 273 273 272 272 271 270 270 270 269 269 269 269 269 269 269 269 269 270 270 270 270 271 271 271 271 270 270 271 270 270 270 270 270
285 285 285 284 284 284 284 284 283 282 281 280 279 278 277 275 275 274 274 273 273 273 273 273 273 273 273 273 272 272 271 271 271 270 270 269 268 268 268 268 268 269 269 269 269 270 270 270 270 270 271 271 271 271 271 270 270 270 271 271 270 271
285 285 284 284 284 283 283 282 282 281 280 279 278 276 275 275 274 273 273 273 273 273 273 273 273 272 272 271 271 270 270 269 269 269 268 268 268 268 268 268 268 268 268 269 270 270 270 270 270 270 270 270 270 271 271 271 271 272 271 272 272 273
286 285 284 284 283 283 282 282 281 280 279 277 276 275 274 274 273 272 272 272 272 273 273 272 271 271 271 270 269 269 269 268 268 267 267 267 267 267 268 268 268 268 269 269 269 270 269 269 270 270 272 273 272 272 272 272 272 272 272 272 272 273
286 285 284 284 283 283 282 281 281 280 278 276 275 274 273 273 272 272 272 272 273 272 272 271 271 270 269 269 268 267 267 266 266 266 265 265 266 266 267 267 268 268 269 269 268 268 269 269 269 271 274 275 276 274 272 272 273 274 273 273 273 273
286 285 284 284 284 283 282 281 279 278 277 275 274 273 272 272 272 271 271 272 271 271 271 270 270 268 268 267 266 265 265 265 264 264 264 265 265 266 267 267 268 268 268 268 268 268 268 268 270 272 274 275 276 276 274 274 273 274 274 274 274 274
286 285 285 284 284 283 282 281 278 277 276 274 273 272 271 271 271 271 271 271 270 270 270 269 268 267 266 265 265 264 264 263 263 263 264 264 265 266 266 267 267 267 267 267 267 267 268 268 270 273 274 275 276 277 276 274 274 274 274 274 274 274
287 286 285 285 284 283 282 280 278 277 275 273 272 270 270 270 270 270 270 269 269 269 268 267 266 265 265 264 264 264 263 263 263 264 264 265 265 265 266 266 266 266 266 267 266 266 267 268 270 273 274 275 276 277 277 274 274 274 273 273 273 273
287 286 285 284 283 281 279 278 276 274 272 271 270 270 269 270 269 269 269 268 268 268 267 266 265 264 264 263 263 263 263 263 263 263 264 265 265 265 265 265 265 265 265 265 266 265 266 267 271 273 274 275 276 277 277 274 273 273 273 273 273 273
287 286 285 285 282 279 278 276 275 272 271 270 270 269 269 268 268 268 268 267 267 266 266 264 264 263 263 263 263 262 262 263 263 263 264 264 264 265 265 265 265 264 264 265 265 265 265 267 271 273 274 275 276 277 274 273 273 273 273 273 273 273
288 287 285 282 280 277 276 274 273 271 269 269 268 268 268 267 267 267 267 266 266 265 265 264 263 262 262 263 262 262 262 262 262 263 264 263 263 264 264 263 264 264 264 264 264 265 265 266 270 273 275 275 276 275 273 273 272 272 272 273 273 274
287 285 282 279 277 276 274 272 271 270 269 268 267 266 266 266 266 266 265 265 265 264 264 263 262 262 262 262 261 261 262 262 263 263 263 262 262 262 263 263 263 264 264 264 264 265 265 267 270 273 274 275 276 276 273 272 272 272 272 272 273 274
283 280 279 277 275 274 272 271 269 268 267 266 266 266 265 265 266 265 264 264 264 263 263 262 262 262 261 261 261 261 261 261 262 262 263 262 262 262 263 263 263 263 264 264 265 267 268 268 269 272 274 275 276 274 273 272 272 271 271 272 272 273
277 276 276 274 273 271 269 269 268 268 266 266 266 265 265 266 266 265 264 264 263 262 261 261 260 261 260 260 260 261 261 262 262 262 262 261 262 262 262 262 263 262 263 265 266 267 268 268 269 270 274 275 275 276 273 273 272 271 271 272 272 272
277 276 276 275 271 270 269 269 268 267 266 266 265 265 266 266 265 263 263 262 261 260 260 260 260 259 259 260 260 261 260 261 261 261 260 260 261 261 261 261 262 263 265 266 267 267 268 269 269 270 273 274 275 276 275 272 272 272 272 271 271 271
277 276 275 272 269 269 268 269 268 267 266 265 265 266 266 264 263 262 261 260 260 260 259 259 260 259 259 259 259 260 260 261 260 260 260 261 261 260 260 261 262 264 265 266 267 268 268 270 271 269 272 274 275 276 277 273 273 273 272 271 270 271
275 274 272 269 268 268 268 268 267 266 265 265 266 265 263 262 261 260 260 259 259 258 258 258 258 258 259 259 259 259 259 260 259 259 259 259 260 260 261 262 263 264 264 266 267 268 268 269 269 271 270 273 274 276 276 276 275 276 273 271 269 270
274 271 269 267 267 267 268 268 267 266 265 266 265 263 261 260 259 259 258 258 258 257 257 258 258 258 259 258 259 259 258 259 259 259 260 260 260 261 261 263 263 264 264 265 266 267 268 268 269 270 272 272 274 276 276 276 276 276 272 271 270 270
271 268 266 266 266 267 268 269 267 265 266 265 262 261 260 259 258 258 257 257 257 257 257 257 258 258 258 258 259 259 259 258 258 259 261 260 261 261 261 262 263 264 265 265 265 266 267 268 268 268 270 273 274 275 275 276 276 275 275 270 270 271
268 266 265 265 265 266 267 268 268 266 266 262 261 260 259 258 257 256 256 256 256 256 257 257 258 258 258 258 259 259 259 259 259 260 260 260 261 262 262 262 263 264 264 264 265 265 266 267 267 268 269 271 272 273 274 274 274 273 273 272 271 274
266 265 264 264 264 265 266 267 268 268 263 261 261 260 257 256 256 256 256 256 256 256 257 257 258 258 258 258 259 259 259 259 260 260 260 261 261 261 262 263 264 264 264 264 264 265 266 266 267 268 269 270 270 270 271 270 270 272 272 270 270 271
266 265 264 263 264 265 265 265 266 263 261 261 260 258 256 256 256 255 255 256 257 257 257 258 258 258 259 258 259 259 259 260 260 260 261 261 261 261 262 264 264 264 264 264 264 265 265 265 266 267 269 270 270 270 270 270 269 268 268 268 269 269
266 265 264 264 264 264 264 264 262 261 261 260 258 256 256 257 257 256 256 257 257 258 258 258 258 259 259 258 258 258 259 259 260 261 262 263 264 265 265 265 265 265 265 265 265 264 264 265 266 268 273 271 273 270 269 268 268 268 268 270 272 268
266 265 264 264 263 263 263 261 260 260 260 258 257 257 257 256 256 256 256 257 258 258 258 258 258 258 258 258 258 258 258 260 263 263 263 263 266 267 268 268 266 267 266 266 266 267 265 265 268 273 274 273 273 273 273 272 272 272 270 271 271 268
266 265 264 263 262 262 261 259 259 258 257 257 257 257 257 256 256 257 257 257 257 258 258 258 258 258 258 258 258 258 258 259 261 264 265 266 266 267 267 268 268 269 269 267 266 267 270 271 272 273 273 273 273 273 272 272 271 271 272 272 266 264
265 264 263 262 261 260 259 258 258 257 256 256 257 257 257 257 258 257 257 258 258 258 258 259 258 258 258 258 258 258 258 258 259 261 265 266 265 266 266 267 267 268 268 269 268 267 266 269 271 272 272 272 272 272 272 271 270 270 271 271 268 262
265 265 263 262 261 260 258 257 257 256 256 256 257 257 257 258 259 258 258 258 258 258 258 258 258 258 257 257 257 257 257 257 257 259 259 261 263 265 265 265 266 267 267 268 269 269 269 270 271 271 271 271 271 271 271 270 268 269 270 268 263 261
265 264 262 261 260 259 258 257 257 256 256 256 257 257 258 258 258 258 258 258 258 258 258 258 258 257 257 257 257 257 256 256 256 255 254 255 257 258 261 263 265 265 266 266 268 268 269 270 270 270 270 270 270 270 270 268 263 267 268 265 261 261
264 263 261 260 259 258 258 257 256 256 256 256 256 257 258 258 258 258 257 257 258 259 258 259 258 257 257 256 256 256 255 255 254 254 254 254 254 254 254 255 256 260 264 263 264 266 268 269 270 269 269 269 269 269 268 265 260 259 259 260 260 261
263 262 260 259 258 258 258 257 256 256 256 256 256 256 257 257 257 258 258 257 257 258 259 258 257 257 257 257 256 256 255 254 254 254 254 254 253 253 253 254 255 255 258 262 263 265 267 268 268 268 268 268 268 268 265 258 258 258 258 258 259 260
Wind_Speed
13 13 15 15 15 15 15 15 14 13 13 15 16 17 16 15 11 11 9 10 7 7 8 9 7 7 6 6 6 6 7 7 7 7 7 7 7 7 7 7 6 6 6 7 8 8 9 10 11 11 11 11 12 12 12 12 12 13 14 13 13 13
13 13 14 15 16 15 13 15 12 16 15 15 14 13 13 13 12 11 11 10 8 8 7 7 6 6 6 6 6 6 7 7 6 7 7 7 6 7 7 6 6 6 7 7 8 9 9 10 10 10 11 11 11 11 11 12 13 14 15 14 13 12
11 12 11 10 10 10 11 12 16 16 13 15 14 16 15 14 12 11 10 9 9 9 9 7 7 7 6 6 6 7 7 6 6 6 6 6 7 6 6 6 6 7 7 8 8 9 10 11 11 10 10 11 12 12 13 14 14 15 14 14 16 14
9 9 9 9 10 12 14 12 13 14 15 15 14 13 13 14 12 11 10 9 8 9 8 7 6 6 6 6 7 7 6 5 5 5 5 7 6 5 6 6 6 6 7 8 9 10 10 11 12 11 10 11 12 13 11 12 13 14 15 14 15 16
8 9 11 13 14 13 14 13 14 15 16 14 13 14 14 13 12 11 10 9 9 8 7 7 6 6 7 7 6 6 6 5 5 4 5 6 5 5 5 6 7 8 8 9 9 10 10 11 11 10 11 12 13 14 14 13 14 15 16 16 17 18
7 8 11 12 13 14 15 14 14 13 13 14 13 15 15 13 11 11 10 9 8 8 7 7 6 7 7 6 5 6 5 4 4 4 5 5 5 5 6 6 7 8 8 9 10 10 11 11 11 11 11 13 13 14 15 15 15 15 16 17 19 19
11 12 12 12 13 13 13 14 15 14 14 14 14 13 13 12 11 11 10 9 9 8 7 7 7 7 7 6 5 5 4 4 4 4 5 5 5 6 6 6 6 7 8 9 10 11 11 11 12 12 12 12 13 14 15 15 15 15 16 17 18 19
10 10 11 12 13 13 14 14 15 14 14 14 13 13 13 12 11 11 10 9 9 8 9 8 7 8 7 6 5 5 4 4 4 4 4 4 6 6 6 7 6 7 9 10 10 11 12 12 12 12 13 13 13 14 14 15 15 16 18 19 19 18
13 14 14 13 13 14 14 15 15 15 14 14 13 12 12 12 11 10 10 9 9 8 9 8 8 7 6 6 5 4 3 3 4 4 5 4 5 6 6 7 8 8 9 10 10 11 12 12 12 12 13 13 14 15 15 15 18 19 18 19 19 19
13 13 15 14 14 14 13 14 14 15 16 15 13 13 12 10 11 11 10 9 9 8 9 8 7 6 6 5 4 4 3 3 4 4 4 4 5 6 7 7 8 8 8 9 10 11 11 12 12 12 13 13 13 14 16 18 18 19 19 20 20 19
14 15 15 15 14 16 17 14 14 12 11 11 12 12 12 11 11 10 10 9 9 8 8 7 6 5 5 5 4 4 3 4 4 4 4 4 5 5 7 8 8 9 10 10 10 11 11 11 11 9 10 12 15 16 17 18 19 19 20 20 19 20
14 14 15 15 17 17 17 15 15 15 15 14 13 12 11 12 11 11 10 9 8 8 8 7 6 6 5 5 5 4 3 3 4 4 4 5 6 6 7 8 8 9 9 10 11 10 10 10 9 12 19 20 17 18 17 18 19 19 18 20 20 20
14 13 15 17 18 19 18 17 15 14 13 12 13 12 12 11 11 10 10 9 8 8 8 7 6 6 6 5 4 3 3 4 4 3 4 5 6 7 7 8 8 9 8 10 10 11 10 10 10 19 22 24 26 20 18 18 19 17 20 18 19 20
15 16 18 18 18 18 16 15 15 15 14 13 13 12 11 10 11 10 9 9 9 8 8 7 7 6 5 5 4 4 4 4 4 3 4 5 6 6 7 8 8 8 9 8 10 11 11 11 16 22 24 25 26 24 19 17 16 18 17 18 18 18
16 18 18 16 16 16 18 17 15 16 15 15 13 12 12 11 11 10 9 9 9 8 7 7 7 6 5 4 4 4 4 4 3 4 4 5 5 6 7 8 8 8 8 9 10 11 12 12 17 22 25 26 27 27 24 16 18 16 19 18 20 21
11 13 17 17 17 15 14 15 16 13 13 13 12 13 11 12 10 9 9 9 8 8 7 7 6 6 5 5 4 5 4 3 4 4 4 4 5 6 7 7 8 9 9 9 11 11 12 13 17 23 26 26 28 28 25 19 18 19 19 20 20 19
14 12 11 11 13 13 13 12 11 12 12 12 13 11 12 10 11 9 9 9 8 8 7 7 6 6 6 5 6 5 4 4 3 4 4 4 5 5 6 6 7 8 8 9 10 11 13 12 21 25 26 26 27 28 27 17 18 17 18 19 20 21
13 14 15 11 11 11 13 13 12 13 12 11 11 11 10 10 9 9 9 8 8 8 8 7 7 6 6 6 6 5 4 4 4 3 3 4 4 5 5 6 7 8 9 10 11 12 13 14 22 24 24 26 26 30 19 16 17 17 18 18 19 21
10 11 10 11 12 13 12 11 12 12 12 11 8 10 9 9 9 9 9 9 9 9 8 8 7 7 6 6 5 4 4 3 3 3 2 3 4 5 6 6 7 7 9 11 11 12 13 14 19 23 25 25 27 23 16 17 17 17 16 18 18 20
7 9 12 14 13 10 11 12 13 13 12 10 10 10 9 9 9 9 9 9 8 8 8 8 7 7 7 6 5 4 3 2 2 2 2 3 4 5 6 6 7 8 8 10 12 12 14 15 18 23 24 25 26 24 18 17 16 15 17 18 20 19
12 13 14 15 15 12 13 15 16 13 11 10 10 9 10 10 9 10 10 9 8 8 7 7 7 7 6 6 4 4 3 3 2 1 2 3 4 5 6 6 7 8 9 10 12 17 17 15 17 22 23 26 26 22 17 16 15 18 18 18 19 19
14 14 17 19 18 18 22 20 18 22 14 11 11 11 10 10 10 9 8 8 8 7 7 6 6 6 6 5 5 4 3 2 1 1 2 3 4 4 5 6 6 9 10 10 11 12 13 14 14 16 24 25 26 28 20 18 19 18 20 17 18 20
20 23 25 19 18 16 15 14 15 15 12 13 12 12 11 9 9 10 9 8 8 7 7 6 6 6 5 4 4 3 3 2 1 1 2 3 4 4 5 6 8 9 10 10 11 12 11 11 14 16 23 24 27 28 25 17 18 18 17 18 19 18
16 12 11 13 16 14 14 15 19 14 12 12 12 11 9 10 10 9 9 9 8 8 7 6 6 5 4 4 4 3 3 2 1 1 2 3 4 5 7 8 8 9 10 11 11 10 11 13 17 16 20 25 27 27 31 19 17 20 20 20 18 18
13 14 14 12 13 14 14 17 23 15 13 13 12 10 10 10 10 9 9 9 8 7 7 6 6 5 4 3 4 3 2 2 2 2 3 3 4 4 7 7 8 9 10 10 8 9 10 12 13 19 19 25 27 30 28 30 24 29 22 18 19 19
12 12 10 12 11 12 14 24 26 16 14 13 11 11 10 10 9 9 9 8 7 7 6 6 5 5 4 4 3 3 3 2 1 2 1 1 2 3 6 6 7 9 9 9 10 10 10 11 12 17 23 22 28 28 29 29 31 31 22 20 17 18
21 15 11 11 12 10 11 12 18 18 17 12 12 13 13 11 10 10 9 8 8 7 6 6 5 5 4 4 4 4 3 2 1 1 1 1 2 3 5 7 8 8 9 10 10 11 12 12 13 14 17 25 26 28 28 30 31 31 30 20 17 17
19 16 15 12 11 10 9 10 13 26 15 13 11 12 12 12 11 10 9 8 8 7 7 8 6 5 4 4 3 3 2 2 1 0 1 1 2 3 5 7 7 7 9 10 10 12 12 13 12 12 13 16 20 22 27 30 29 29 29 26 20 27
16 15 15 16 13 10 10 12 7 8 11 12 12 12 11 11 11 11 9 9 8 7 8 8 6 6 5 4 3 3 3 2 2 1 1 1 2 4 6 6 7 8 8 10 11 12 12 12 11 12 13 14 15 16 18 20 20 25 25 18 17 20
17 18 16 15 15 12 10 9 12 8 8 11 11 11 12 12 11 11 10 10 8 7 7 6 7 7 5 4 4 3 3 3 3 2 1 1 2 4 5 7 8 8 9 9 10 11 11 11 12 12 14 17 18 17 17 16 16 17 16 17 17 17
18 18 16 13 12 11 11 14 11 10 11 10 11 12 13 11 11 10 10 8 6 7 6 5 5 4 5 5 4 2 2 2 3 2 2 3 3 4 5 6 7 7 8 8 9 11 11 12 13 14 21 20 25 21 19 18 18 17 16 20 28 19
26 20 15 12 12 12 14 14 10 9 8 9 10 10 12 12 10 10 8 7 6 7 6 5 5 4 4 5 4 3 0 3 7 5 2 2 6 9 10 8 6 8 8 7 8 9 10 12 14 25 28 27 27 28 28 26 27 26 22 26 30 20
19 14 18 16 13 13 11 10 11 10 10 10 10 10 11 12 10 7 7 6 6 6 6 5 4 4 4 4 4 3 3 1 2 6 7 3 5 9 9 9 10 12 13 10 7 9 16 18 22 25 26 27 26 27 27 27 27 27 28 28 21 14
19 20 19 13 13 13 12 11 10 11 12 11 11 9 10 10 10 10 8 7 7 7 5 4 4 4 4 4 3 3 2 2 2 3 9 6 5 7 7 9 12 14 14 15 14 13 10 16 21 24 25 25 26 25 27 26 27 26 28 29 23 13
17 15 17 15 16 14 13 13 11 11 12 12 11 12 12 11 9 9 9 8 8 7 6 5 5 4 5 5 4 3 3 3 3 2 1 3 2 1 2 8 13 17 16 16 17 18 18 19 21 24 24 25 26 26 26 25 24 23 26 26 16 12
19 21 17 18 20 16 14 14 14 14 14 13 12 11 11 10 13 12 9 9 10 9 7 5 5 6 5 5 4 4 4 2 2 2 1 5 8 8 4 6 13 17 18 17 18 19 21 21 23 23 24 24 25 26 25 24 16 19 21 18 11 12
18 18 18 17 17 16 16 14 13 12 13 12 12 12 11 11 9 7 10 12 10 7 7 6 6 6 6 6 5 5 4 3 2 2 0 0 2 3 5 7 9 13 16 13 13 18 21 22 24 23 23 23 24 25 25 21 12 15 15 15 13 13
27 18 19 19 15 14 15 13 12 13 13 13 13 11 11 10 9 9 8 8 7 7 6 6 6 5 6 6 5 5 5 4 3 2 1 1 2 2 4 4 5 6 10 13 15 19 20 21 22 22 22 22 23 23 22 13 14 14 15 16 14 13
Wind_Direction
205 202 202 202 201 197 195 189 180 175 175 179 178 176 174 169 164 164 165 168 170 174 180 184 187 196 206 216 223 231 237 239 242 245 253 259 256 255 257 264 271 274 275 278 281 281 278 279 279 279 278 274 276 277 276 274 271 270 270 269 268 271
208 203 200 197 197 191 182 181 173 182 181 174 174 165 162 159 162 163 164 168 167 167 170 179 184 194 206 214 221 230 235 241 242 250 255 256 263 264 264 268 277 287 284 285 288 285 284 280 278 277 276 274 271 274 275 274 273 272 271 272 271 270
207 206 200 196 192 185 178 179 181 183 175 177 172 167 164 164 164 163 165 162 169 167 176 179 182 196 204 214 224 233 241 243 245 251 256 269 264 269 276 280 289 293 287 286 290 287 284 281 279 278 276 273 273 274 273 274 273 272 272 271 274 271
206 199 191 187 183 189 189 182 175 177 177 178 168 164 165 163 164 166 160 163 166 171 176 179 185 192 205 214 221 231 235 241 246 250 262 264 271 277 287 289 295 293 291 290 286 285 282 279 277 277 276 274 275 276 274 275 277 275 273 273 272 275
200 194 191 191 192 188 184 177 182 181 179 171 170 166 168 163 159 159 158 162 163 169 169 177 187 193 205 214 224 226 231 239 249 253 263 271 280 284 285 291 294 294 291 288 284 282 279 278 279 279 279 278 278 280 279 276 277 276 274 274 275 281
190 189 193 194 191 186 185 182 181 177 174 171 167 170 161 158 155 155 155 158 162 164 171 182 188 196 205 214 220 222 229 241 251 259 263 273 277 284 289 292 293 292 289 286 284 280 280 281 280 283 281 280 280 280 280 281 276 274 274 274 282 283
199 203 198 194 192 189 184 181 182 177 175 171 171 165 158 153 152 152 155 156 157 166 176 184 190 196 204 211 216 222 231 244 248 256 265 270 276 284 292 292 292 290 287 283 284 286 285 284 285 285 283 282 282 282 283 280 276 274 275 278 281 284
207 202 198 196 193 188 183 182 180 177 173 174 167 156 156 152 150 153 150 157 162 171 181 185 190 198 202 206 215 222 230 239 251 262 272 267 276 289 287 289 288 285 284 284 285 284 284 287 286 284 285 284 284 283 280 280 277 278 283 284 282 278
210 208 201 198 190 185 183 181 178 175 171 168 164 156 152 149 148 150 150 156 164 174 182 185 189 191 193 199 207 211 223 238 255 261 262 274 279 282 284 285 286 281 283 284 286 284 285 288 287 286 287 289 288 287 284 287 288 287 281 275 271 270
211 207 205 196 193 183 181 183 179 175 172 167 161 156 149 149 149 149 153 158 170 178 180 183 184 184 190 192 198 211 220 237 247 254 263 272 279 280 281 283 286 285 282 283 283 284 285 285 286 287 287 289 291 292 292 291 288 285 280 276 270 266
206 206 201 197 186 184 183 178 175 169 164 157 155 152 149 146 146 148 154 163 174 179 175 174 176 175 182 191 197 208 217 232 249 255 264 271 278 279 280 282 282 285 283 281 282 286 287 286 287 288 289 292 296 295 292 291 289 286 288 284 280 276
207 203 196 190 189 186 183 180 178 175 167 163 157 151 149 147 149 151 158 168 174 170 170 169 168 177 182 187 197 200 211 232 242 254 268 276 279 280 283 284 281 277 283 287 289 288 287 285 283 282 286 293 295 297 297 294 291 285 276 280 274 276
209 200 192 194 191 188 184 180 175 168 162 157 154 150 151 148 147 151 161 169 169 165 166 170 174 177 183 187 189 192 215 234 242 262 274 275 276 280 281 279 280 283 286 289 290 292 288 285 281 284 294 297 299 299 296 294 290 286 287 278 282 277
205 197 198 197 194 185 178 173 168 163 165 156 154 148 145 146 148 155 164 165 162 165 168 173 172 174 182 178 189 201 214 233 246 259 266 273 278 278 278 281 280 287 289 289 290 290 291 288 286 292 300 302 302 301 298 295 293 293 287 290 284 286
202 200 199 195 188 184 183 170 159 169 161 155 151 138 147 148 151 158 162 164 165 168 169 169 168 173 177 184 185 206 217 225 241 252 262 268 276 281 275 280 289 287 291 291 294 293 293 291 292 297 302 305 305 304 303 297 296 292 295 293 293 289
203 201 198 192 187 180 165 162 164 156 143 137 135 143 147 148 154 158 161 161 166 167 164 166 165 175 177 178 192 207 214 217 236 248 263 269 272 271 278 282 283 287 291 295 295 297 296 295 293 300 303 305 305 305 305 301 298 297 293 294 293 292
203 196 183 178 165 154 144 144 139 130 129 137 142 149 145 149 152 158 162 163 166 163 164 166 170 175 175 184 196 203 207 219 233 247 254 262 266 273 278 283 286 288 290 292 296 296 297 292 298 302 304 306 307 307 309 302 299 295 294 294 293 290
194 189 192 165 142 147 150 154 141 137 141 141 143 143 145 148 154 159 160 161 167 167 168 168 171 173 180 188 193 194 205 213 222 236 259 267 273 273 276 280 281 285 287 291 295 295 294 292 297 303 304 307 309 310 308 304 299 298 295 289 291 289
185 179 153 149 151 144 153 134 133 132 132 140 139 137 144 151 158 164 165 167 166 168 168 170 170 174 183 188 186 190 200 206 220 237 244 267 276 281 281 281 285 286 293 299 294 288 290 294 301 304 307 308 310 312 309 306 303 297 292 291 292 293
153 144 145 138 134 136 126 135 138 139 141 142 141 144 150 158 169 165 163 167 164 168 166 169 167 176 184 180 183 186 193 201 227 223 242 266 284 287 286 292 293 293 291 289 285 282 289 296 300 306 308 309 310 313 312 308 301 295 297 296 295 295
150 142 136 132 143 145 139 135 131 135 140 142 149 151 157 173 168 167 167 165 159 165 161 164 171 180 178 174 182 183 192 203 206 227 260 265 276 277 280 292 296 298 291 279 276 286 293 295 299 303 307 310 313 315 313 309 306 303 300 301 299 297
126 146 156 165 163 143 138 139 142 145 144 153 152 160 171 173 169 157 147 146 152 154 158 165 177 180 170 171 176 184 192 201 202 220 287 291 275 280 288 290 294 295 290 291 290 295 295 298 300 306 310 313 315 317 316 313 312 306 304 303 303 302
162 168 175 161 144 147 146 149 146 155 153 151 159 175 173 152 140 141 147 144 147 153 158 166 181 177 173 175 177 173 179 183 151 331 297 283 279 285 295 292 292 293 297 299 300 296 295 299 305 308 314 316 318 318 319 313 313 311 307 308 308 305
162 140 131 137 147 148 152 152 151 143 150 156 172 167 137 130 139 139 143 147 148 151 156 167 172 170 173 185 179 166 163 147 125 283 271 279 292 294 300 303 301 303 303 305 303 300 302 307 307 312 315 320 322 322 323 323 318 318 317 313 308 305
161 165 154 147 145 152 158 146 143 151 153 168 159 131 131 135 135 138 141 142 143 147 157 167 168 167 177 179 172 158 135 129 158 239 249 254 282 294 308 309 308 309 309 307 309 310 309 311 310 313 317 318 321 322 322 322 322 322 322 315 308 309
137 132 135 150 152 154 160 160 150 155 157 156 134 131 129 129 136 138 136 139 140 145 159 168 166 167 172 172 162 145 125 108 153 244 233 285 295 311 313 315 312 314 310 318 319 317 316 316 314 315 316 318 321 323 325 325 326 326 324 318 312 310
153 139 141 158 161 166 163 169 146 153 153 148 137 144 143 140 140 139 138 140 142 152 162 160 159 163 170 170 160 133 135 142 178 234 239 278 293 317 312 314 315 314 321 321 320 319 320 321 319 313 311 320 325 330 330 329 329 329 328 323 315 309
123 139 148 159 168 165 167 175 159 162 157 135 143 141 139 136 135 135 136 136 145 158 161 149 152 160 164 166 139 129 132 134 166 206 296 285 307 319 312 313 312 321 324 323 322 321 320 322 318 314 318 324 330 330 331 333 333 331 329 326 318 318
151 157 154 157 170 164 170 161 178 117 124 141 139 136 131 131 132 130 135 143 149 162 160 153 159 158 164 154 137 133 140 154 163 191 234 246 308 311 308 304 326 329 326 324 323 322 321 321 319 323 325 332 333 334 334 336 335 334 332 329 327 330
163 163 161 161 166 165 158 154 141 119 123 133 135 129 130 133 139 137 143 150 160 163 162 159 162 167 147 143 141 136 150 161 176 184 214 252 308 302 314 329 328 330 328 324 322 322 324 320 324 327 334 339 339 337 338 338 337 337 336 334 334 335
169 167 160 157 150 145 147 141 128 137 143 136 133 141 136 133 131 126 136 152 155 148 153 156 167 161 134 131 124 125 163 164 169 188 220 246 245 292 317 320 324 327 328 326 322 327 323 327 329 332 337 338 339 341 342 342 341 339 340 341 342 333
156 157 157 142 142 148 148 139 130 131 129 123 139 142 129 129 129 132 148 161 153 142 149 152 152 143 132 125 118 116 68 240 228 227 237 296 323 328 331 335 332 333 331 324 325 328 327 327 327 333 338 340 341 342 346 346 344 343 345 347 345 337
156 145 142 152 152 147 132 125 134 134 133 145 152 148 137 133 132 134 146 153 149 154 148 150 140 141 127 121 123 130 129 78 314 245 236 263 322 334 339 348 346 345 343 341 331 331 331 328 335 339 340 341 342 344 348 350 347 346 351 351 348 346
168 172 165 144 143 138 138 137 148 146 146 150 151 153 146 148 142 150 160 148 141 142 146 132 132 123 112 102 96 93 93 128 149 190 204 195 358 343 352 355 354 353 353 351 349 346 335 339 343 344 343 343 344 346 350 351 348 350 353 352 353 355
172 133 124 149 148 146 150 149 148 143 147 153 157 157 153 160 155 143 142 141 138 139 141 142 135 128 121 118 110 96 74 52 13 357 340 201 193 5 64 13 5 359 357 354 353 352 349 346 346 346 345 345 346 349 351 350 345 348 354 353 354 355
126 154 154 156 157 148 148 150 154 159 158 155 156 162 159 147 148 141 144 146 148 144 147 146 143 134 124 117 111 113 104 85 92 58 0 337 335 344 342 357 3 2 355 351 352 350 349 349 350 349 347 347 348 350 352 351 344 350 358 2 351 350
152 154 157 149 145 151 156 156 158 153 149 150 147 146 143 149 144 136 134 138 141 137 141 139 138 132 127 129 128 125 124 129 129 132 126 345 317 319 318 316 326 341 349 348 348 346 349 348 350 348 346 347 350 353 351 350 351 353 351 355 356 351
154 151 147 149 152 154 149 150 150 150 147 147 149 146 145 143 143 137 139 142 132 129 131 134 136 135 135 135 128 123 129 133 145 150 161 196 238 261 288 290 310 309 312 339 352 351 348 346 346 345 344 347 351 357 357 1 358 355 355 353 344 339